Regional Weather Roundup
Issued by NWS

Home | Current Version | Previous Version | Graphics & Text | Print | Product List | Glossary On
Versions: 1 2 3 4 5 6 7 8 9 10 11 12 13 14 15 16 17 18 19 20 21 22 23 24 25 26 27 28 29 30 31 32 33 34 35 36 37 38 39 40 41 42 43 44 45 46 47 48 49 50
000
ASUS43 KFSD 061410
RWRSD

WEATHER ROUNDUP FOR SOUTH DAKOTA
NATIONAL WEATHER SERVICE SIOUX FALLS SD
900 AM CDT MON JUL 06 2015

NOTE: "FAIR" INDICATES FEW OR NO CLOUDS BELOW 12,000 FEET WITH NO
SIGNIFICANT WEATHER AND/OR OBSTRUCTIONS TO VISIBILITY.


SDZ001>005-009-010-012>017-061500-
NORTHWEST AND NORTH CENTRAL SOUTH DAKOTA

CITY           SKY/WX    TMP DP  RH WIND       PRES   REMARKS
BUFFALO          N/A     60  54  80 NW17      30.14R
FAITH            N/A     62  54  74 NW12      30.16R
MOBRIDGE       MOSUNNY   65  61  87 N10       30.08R FOG
$$

SDZ012>016-024>037-041>051-057-063-072>074-061500-
SOUTHWEST AND SOUTH CENTRAL SOUTH DAKOTA

CITY           SKY/WX    TMP DP  RH WIND       PRES   REMARKS
RAPID CTY ARPT CLOUDY    59  54  83 N16       30.21R
PIERRE         CLOUDY    66  62  87 N13       30.06R FOG
CUSTER         CLOUDY    53  49  86 NE6       30.26S FOG
ELLSWORTH AFB  CLOUDY    59  54  83 N12       30.20R
PHILIP         CLOUDY    64  58  80 N13       30.13R HAZE
PINE RIDGE     CLOUDY    61  57  87 N10       30.18S FOG
SPEARFISH      CLOUDY    55  52  88 W6        30.26R
WINNER         CLOUDY    67  63  87 N14       30.07R FOG
$$

SDZ004>011-016>023-039-040-061500-
NORTHEAST SOUTH DAKOTA

CITY           SKY/WX    TMP DP  RH WIND       PRES   REMARKS
ABERDEEN       CLOUDY    66  60  81 N15       30.02R HAZE
WATERTOWN      CLOUDY    63  59  87 N14G22    29.97R FOG
BROOKINGS      CLOUDY    64  61  88 N14       29.97R
SISSETON         N/A     62  59  90 N17       29.98R
$$

SDZ017-020-022-023-036>040-048>070-061500-
SOUTHEAST SOUTH DAKOTA

CITY           SKY/WX    TMP DP  RH WIND       PRES   REMARKS
SIOUX FALLS    CLOUDY    69  68  96 N13       29.90R
HURON          CLOUDY    64  59  83 N12       30.01R HAZE
CHAMBERLAIN    CLOUDY    63  60  90 N10       30.05R FOG
MITCHELL       CLOUDY    64  60  87 N10       29.98S FOG
YANKTON        CLOUDY    68  64  88 NW16G23   29.89R
$$

ABBREVIATIONS USED IN REMARKS
   TC - TEMPERATURE IN CELSIUS
  WCI - WIND CHILL INDEX
   HX - HEAT INDEX
  VSB - VISIBILITY



USA.gov is the U.S. government's official web portal to all federal, state and local government web resources and services.